Weather in Chirshkasy

Russia / Chuvash Republic     56°00′07″N   47°19′01″E
temp.,
°C
wind,
m/s
gust,
m/s
humid.,
%
clouds,
%
prec.,
mm/h
press.,
hPa
HPBL,
m
23 april, fri
fri2300:00+5ssw228710 0.0 102311
03:00+4s228730 0.0 102420
06:00+5s24855 0.0 1024100
09:00+11s34625 0.0 1024547
12:00+14s345097 0.0 10231830
15:00+13se2458100 0.1 1022315
18:00+11e4768100 0.0 1021171
21:00+9ese498098 0.0 1020200
24 april, sat
sat2400:00+7ese3687100 0.0 1019105
03:00+6ese3589100 0.0 101798
06:00+6e3887100 0.0 1016226
09:00+9ese4675100 0.0 1014470
12:00+12ese5564100 0.0 10111220
15:00+9e6882100 0.1 1010524
18:00+9ese6108032 0.0 1008569
21:00+7ese61290100 0.1 1006366
25 april, sun
sun2500:00+8sse61192100 1.3 1003696
03:00+4wsw61089100 4.8 1004949
06:00+4sw61178100 0.5 1004878
09:00+6wsw91175100 0.9 10051140
12:00+4sw81188100 0.8 1007983
15:00+6sw6117698 1.4 10091122
18:00+7wsw71262100 0.3 1010892
21:00+3wsw512775 0.3 1012414
26 april, mon
mon2600:00+2sw512840 0.0 1013340
03:00+1ssw5158387 0.0 1013377
06:00+3ssw6127839 0.0 1013717
09:00+4wsw61081100 0.1 10141259
12:00+8wsw7949100 0.1 10132028
15:00+9sw694997 0.2 10131975
18:00+8wsw365676 0.0 1012162
21:00+5ssw2266100 0.0 101219
27 april, tue
tue2700:00+3wsw117276 0.0 101110
03:00+3sse117199 0.0 101010
06:00+4sw1175100 0.1 100976
09:00+7se3570100 0.6 1007716
12:00+11s7952100 0.9 10031820
15:00+9ssw81068100 2.2 10011434
18:00+2w91496100 2.1 1002698
21:00+3wsw7128598 2.5 1004904